Regional Weather Roundup
Issued by NWS

Home | Current Version | Previous Version | Text Only | Print | Product List | Glossary On
Versions: 1 2 3 4 5 6 7 8 9 10 11 12 13 14 15 16 17 18 19 20 21 22 23 24 25 26 27 28 29 30 31 32 33 34 35 36 37 38 39 40 41 42 43 44 45 46 47 48 49 50
000
ASUS45 KREV 192110
RWRNV
NEVADA REGIONAL WEATHER ROUNDUP
NATIONAL WEATHER SERVICE RENO NV
100 PM PST SUN FEB 19 2017

NOTE: "FAIR" INDICATES FEW OR NO CLOUDS BELOW 12,000 FEET WITH NO
SIGNIFICANT WEATHER AND/OR OBSTRUCTIONS TO VISIBILITY.

NVZ001-003-004-192200-
WESTERN NEVADA

CITY           SKY/WX    TMP DP  RH WIND       PRES   REMARKS
RENO           MOSUNNY   56  29  35 SW21G30   29.70F
MINDEN         PTSUNNY   48  32  53 S23G30    29.76F
PYRAMID LAKE     N/A     55 N/A N/A SW24        N/A
FALLON         PTSUNNY   57  27  31 VRB5      29.70F
LOVELOCK       MOSUNNY   59  28  30 SW24G33   29.69F
HAWTHORNE      SUNNY     59  25  27 VRB5G14   29.73F
$$

NVZ002-CAZ072-073-192200-
NORTHERN AND CENTRAL SIERRA

CITY           SKY/WX    TMP DP  RH WIND       PRES   REMARKS
S. LAKE TAHOE  CLOUDY    40  30  67 SW13G23   29.78F
TRUCKEE        CLOUDY    37  30  75 SW15G30   29.79F
SQUAW VLY 8000   N/A     30  30 100 S12         N/A
MAMMOTH LAKES  FAIR      46  22  38 SE5       29.85F
BRIDGEPORT       N/A     40  26  57 S10G18    29.80F
$$

NVZ030-031-036-192200-
NORTHERN NEVADA

CITY           SKY/WX    TMP DP  RH WIND       PRES   REMARKS
ELKO           PTSUNNY   52  28  39 SW17      29.71R
WINNEMUCCA     NOT AVBL
WENDOVER       PTSUNNY   55  34  44 SW10G16   29.69S
$$

NVZ035-037-192200-
CENTRAL NEVADA

CITY           SKY/WX    TMP DP  RH WIND       PRES   REMARKS
ELY            MOSUNNY   46  31  55 SW14      29.77S
EUREKA           N/A     50  28  42 W12G20    29.74S
$$

NVZ013-014-192200-
SOUTH CENTRAL NEVADA

CITY           SKY/WX    TMP DP  RH WIND       PRES   REMARKS
TONOPAH        PTSUNNY   46  35  65 S7        29.82S
$$

NVZ017-020-022-192200-
SOUTHERN NEVADA

CITY           SKY/WX    TMP DP  RH WIND       PRES   REMARKS
LAS VEGAS      MOSUNNY   61  38  42 S14G21    29.81F
N. LAS VEGAS   CLOUDY    57  48  72 NE6       29.83S
NELLIS AFB     PTSUNNY   60  45  56 NW6       29.82F
HENDERSON      MOSUNNY   59  41  51 SW14      29.86S
MERCURY        PTSUNNY   55  43  63 SW14      29.84S
$$



USA.gov is the U.S. government's official web portal to all federal, state and local government web resources and services.